カタログに戻る

STARLINK-3199

運用中通信VLEO
NORAD 49760·PAYLOAD·🇺🇸 United States

打ち上げ Dec 2, 2021 から Cape Canaveral Space Force Station

Loading…

次のパス (今後24時間)

TLE

最新Source: CelesTrak SupGP

元期: Sep 14, 2026, 20:40 UTC

1 49760C 21115AN  26257.86159722 -.00020564  00000+0 -60761-3 0  2576
2 49760  53.1595 355.7403 0001214  75.9479 269.4796 15.34398489    10

AllMySatでSTARLINK-3199をリアルタイム追跡

Download on the App Store